Kosmos-1729

unknown
NORAD ID: 16527 Int'l Des: 1986-011 Owner: PVO Country: SU
MEOELLIPTICALHEO_ELLIPTICALSEMI_SYNC

About Kosmos-1729

Description loading...

Live Position

Loading 3D Globe...

Upcoming Passes

Altitude History

Altitude vs Time

uPlot chart will show altitude changes over time

Two-Line Element Set

1 16527U 86011A 26059.88386631 .00000007 00000-0 00000+0 0 9998
2 16527 70.8554 192.6597 4480986 42.6933 342.9773 2.00449430293574
Epoch: Feb 28, 2026 • Age: 94 hours

Current Status

Altitude 10434.3 km
Velocity 5.70 km/s
Sub-Earth Point 69.92°N, 165.51°E
Launch Date Feb 1, 1986
Age 40 years
Type other

Technical Details

Classification Payload
Mass 1250.00 kg
Dry Mass 1150.00 kg
Total Mass 1250.00 kg
Length 4.00 m
Diameter 2.00 m
Span 5.00 m
Shape Cyl + 2 Pan
Manufacturer NPOL/KOMET
Bus Type Oko
Phase Status In Orbit
Owner/State PVO/SU

Large Constellations

Loading constellations...